Regional Weather Roundup
Issued by NWS Nashville, TN

Home | Current Version | Previous Version | Text Only | Print | Product List | Glossary On
Versions: 1 2 3 4 5 6 7 8 9 10 11 12 13 14 15 16 17 18 19 20 21 22 23 24 25 26
000
ASUS44 KOHX 140810
RWROHX
MIDDLE TENNESSEE HOURLY WEATHER ROUNDUP
NATIONAL WEATHER SERVICE NASHVILLE TN
200 AM CST THU DEC 14 2017

NOTE: "FAIR" INDICATES FEW OR NO CLOUDS BELOW 12,000 FEET WITH
NO SIGNIFICANT WEATHER AND/OR OBSTRUCTIONS TO VISIBILITY.

* THESE REPORTS ARE NOT UNDER NWS QUALITY CONTROL AND MAY NOT
  REPORT WEATHER SUCH AS PRECIPITATION AND FOG.


TNZ005>011-023>034-057-059-062>066-078-080-140900
...NORTHERN MIDDLE TENNESSEE...

CITY           SKY/WX    TMP DP  RH WIND       PRES   REMARKS
CLARKSVILLE    CLEAR     39  29  67 NW10      29.84R WCI  32
CROSSVILLE     CLEAR     37  22  54 W10       29.78R WCI  30
GALLATIN       MOCLDY    37  25  60 NW5       29.85R WCI  34
DICKSON          N/A     40  25  55 NW7       29.83R
NASHVILLE      CLEAR     44  25  47 NW5       29.83R
PORTLAND       CLEAR     41  28  60 NW7       29.81R
SMYRNA         CLEAR     39  25  57 CALM      29.84R
SPARTA         MOCLDY    27  23  86 SW3       29.80R
SPRINGFIELD    PTCLDY    39  30  70 NW5       29.81R
WEST NASHVILLE CLEAR     43  27  52 NW8G15    29.82R
$$
TNZ056-058-060-061-075>077-079-093>097-140900
...SOUTHERN MIDDLE TENNESSEE...

CITY           SKY/WX    TMP DP  RH WIND       PRES   REMARKS
COLUMBIA       PTCLDY    41  25  52 SW6       29.82R
FAYETTEVILLE   PTCLDY    34  27  75 SW7       29.84R WCI  28
MCMINNVILLE    PTCLDY    36  23  60 SW3       29.82R
MURFREESBORO   CLEAR     39  24  55 CALM      29.82R
PULASKI        PTCLDY    43  25  49 CALM      29.84R
SHELBYVILLE    CLEAR     36  25  64 CALM      29.83R
TULLAHOMA      PTCLDY    36  23  60 SW7       29.82R WCI  30
WINCHESTER     CLEAR     43  25  49 W7        29.84R
$$


...KEY TO REMARKS...
VSB - VISIBILITY IN MILES
WCI - WIND CHILL INDEX
HX  - HEAT INDEX





USA.gov is the U.S. government's official web portal to all federal, state and local government web resources and services.